Regional Weather Roundup
Issued by NWS Spokane, WA

Home | Current Version | Previous Version | Text Only | Print | Product List | Glossary On
Versions: 1 2 3 4 5 6 7 8 9 10 11 12 13 14 15 16 17 18 19 20 21 22 23 24 25 26 27 28 29 30 31 32 33 34 35 36 37 38 39 40 41 42 43 44 45 46 47 48 49 50
000
NZUS01 KOTX 221910
RWROTX
EASTERN WASHINGTON/NORTHERN IDAHO ROUNDUP
NATIONAL WEATHER SERVICE, SPOKANE WA
1100 AM PST MON DEC 22 2014

Note: "fair" indicated few or no clouds below 12,000 feet with no
significant weather and/or obstructions to visibility.

...NORTHEAST WASHINGTON AND NORTHERN IDAHO PANHANDLE...

CITY           SKY/WX    TMP DP  RH WIND       PRES   REMARKS
SPOKANE INTL   MOSUNNY   41  30  65 W14       30.17R
SPOKANE DOWNTO SUNNY     42  30  62 W5        30.18R
COEUR D ALENE  SUNNY     41  30  65 SW8       30.14R
DEER PARK      SUNNY     40  30  67 SW5       30.16R
SANDPOINT      PTSUNNY   43  30  61 S5        30.11S

...SOUTHEAST WASHINGTON AND SOUTHERN IDAHO PANHANDLE...

CITY           SKY/WX    TMP DP  RH WIND       PRES   REMARKS
WALLA WALLA    PTSUNNY   50  38  63 S6        30.29R
PULLMAN/MOSCOW SUNNY     41  33  73 W17G23    30.21R
LEWISTON       SUNNY     48  31  51 W21G26    30.21R
LOWELL           N/A     41  40  96 N3        30.19R

...COLUMBIA BASIN...

CITY           SKY/WX    TMP DP  RH WIND       PRES   REMARKS
EPHRATA        MOSUNNY   50  26  39 NW23G35   30.21S
MOSES LAKE     MOSUNNY   50  26  39 W6        30.26R
TRI CITIES     PTSUNNY   51  31  46 W20G30    30.29F
HERMISTON      CLOUDY    51  39  63 W9        30.31R
PENDLETON      PTSUNNY   46  39  76 W14       30.29S

...EAST SLOPES CASCADES...

CITY           SKY/WX    TMP DP  RH WIND       PRES   REMARKS
THE DALLES     SUNNY     55  38  52 NW15      30.33F
YAKIMA         SUNNY     52  30  43 MISG      30.29S
ELLENSBURG     SUNNY     46  32  58 NW18      30.28R
WENATCHEE      SUNNY     49  29  46 NW23G29   30.23S
OMAK           SUNNY     41  30  65 VRB3      30.24R

...SOUTHERN BRITISH COLUMBIA...

CITY           SKY/WX    TMP DP  RH WIND       PRES   REMARKS
CASTLEGAR      PTSUNNY   34  32  93 S7        30.19  WCI  28

...WESTERN MONTANA...

CITY           SKY/WX    TMP DP  RH WIND       PRES   REMARKS
MISSOULA       CLOUDY    38  27  64 NW12      30.05R

...NEIGHBORING CITIES...

CITY           SKY/WX    TMP DP  RH WIND       PRES   REMARKS
SEATTLE        CLOUDY    48  39  71 S6        30.37F
CALGARY        PTSUNNY   36  23  60 NW2       29.90R



USA.gov is the U.S. government's official web portal to all federal, state and local government web resources and services.